KE9LZ Weather Reports


time (UTC)temp
F
wind
direction
speed
knots
gust
knots
rain 1hr
in
rain 24hr
in
rain mn
in
humidity
%
barometer
mb
20260902034003 82 258 2.6 6.1 0.00 0.00 0.00 81 1015.8
20260902033004 82 228 2.6 7.0 0.00 0.00 0.00 81 1015.9
20260902032003 82 225 3.5 6.1 0.00 0.00 0.00 82 1015.7
20260902031003 82 212 2.6 5.2 0.00 0.00 0.00 82 1015.3
20260902025003 82 206 2.6 5.2 0.00 0.00 0.00 84 1015.4
20260902023003 82 191 1.7 4.3 0.00 0.00 0.00 83 1015.5
20260902022003 82 194 1.7 4.3 0.00 0.00 0.00 82 1015.3
20260902021003 83 202 2.6 6.1 0.00 0.00 0.00 81 1015.4
20260902020003 83 205 3.5 6.1 0.00 0.00 0.00 80 1015.4
20260902015004 84 196 1.7 4.3 0.00 0.00 0.00 80 1015.3
20260902014003 84 219 1.7 4.3 0.00 0.00 0.00 79 1015.1
20260902013004 84 219 1.7 4.3 0.00 0.00 0.00 80 1015.4
20260902012004 85 195 0.9 4.3 0.00 0.00 0.00 79 1015.2
20260902011004 85 214 1.7 4.3 0.00 0.00 0.00 78 1015.0
20260902010002 85 233 0.9 2.6 0.00 0.00 0.00 78 1014.8
20260902005003 85 227 0.9 4.3 0.00 0.00 0.00 78 1014.7
20260902004003 85 215 0.9 4.3 0.00 0.00 0.00 77 1014.9
20260902003003 86 277 1.7 2.6 0.00 0.00 0.00 76 1014.7
20260902001003 86 188 1.7 5.2 0.00 0.00 0.00 75 1014.4
20260901235003 87 222 2.6 7.0 0.00 0.00 0.00 72 1014.5
20260901233003 88 206 3.5 6.1 0.00 0.00 0.00 68 1014.4
20260901231003 90 227 4.3 7.8 0.00 0.00 0.00 65 1014.5
20260901230004 91 233 3.5 10.4 0.00 0.00 0.00 64 1014.8
20260901224003 90 201 4.3 7.8 0.00 0.00 0.00 66 1014.7
20260901223004 90 199 2.6 8.7 0.00 0.00 0.00 66 1014.8
20260901222003 90 183 2.6 6.1 0.00 0.00 0.00 66 1014.8
20260901221003 90 210 2.6 7.8 0.00 0.00 0.00 64 1014.8
20260901220003 91 193 5.2 11.3 0.00 0.00 0.00 63 1014.5
20260901215003 92 273 4.3 7.8 0.00 0.00 0.00 61 1014.8
20260901214003 92 245 3.5 7.0 0.00 0.00 0.00 61 1014.9
20260901212004 92 213 1.7 6.1 0.00 0.00 0.00 63 1014.8
20260901211003 90 193 0.9 6.1 0.00 0.00 0.00 67 1015.0
20260901210003 91 229 2.6 7.0 0.00 0.00 0.00 64 1015.0
20260901205003 91 220 2.6 7.0 0.00 0.00 0.00 64 1015.1
20260901204003 91 215 4.3 7.8 0.00 0.00 0.00 63 1015.0
20260901203003 91 226 2.6 7.0 0.00 0.00 0.00 64 1014.9
20260901201003 91 262 4.3 7.8 0.00 0.00 0.00 66 1015.4
20260901200004 91 222 4.3 6.1 0.00 0.00 0.00 65 1015.3
20260901195003 90 200 2.6 5.2 0.00 0.00 0.00 68 1015.3
20260901193004 90 191 2.6 7.8 0.00 0.00 0.00 66 1015.7
20260901192003 91 259 4.3 7.8 0.00 0.00 0.00 66 1015.6
20260901191004 91 230 3.5 7.0 0.00 0.00 0.00 65 1015.8
20260901190003 90 307 1.7 6.1 0.00 0.00 0.00 68 1015.8
20260901185003 89 269 3.5 7.0 0.00 0.00 0.00 68 1015.9
20260901184004 91 199 2.6 5.2 0.00 0.00 0.00 68 1015.8
20260901183004 89 272 3.5 6.1 0.00 0.00 0.00 73 1015.9
20260901182004 89 40 0.9 7.0 0.00 0.00 0.00 74 1015.9
20260901181003 87 290 2.6 7.8 0.00 0.00 0.00 76 1016.1
20260901180003 86 282 5.2 7.8 0.00 0.00 0.00 80 1016.0
20260901174004 87 343 4.3 7.8 0.00 0.00 0.00 79 1016.5
20260901172003 84 310 2.6 6.1 0.00 0.00 0.00 84 1016.8
20260901171004 84 281 4.3 8.7 0.00 0.00 0.00 84 1016.7
20260901170003 86 296 4.3 7.0 0.00 0.00 0.00 81 1016.7
20260901165004 85 301 0.9 5.2 0.00 0.00 0.00 83 1016.9
20260901164003 85 6 0.9 6.1 0.00 0.00 0.00 82 1016.9
20260901162004 84 301 1.7 7.8 0.00 0.00 0.00 85 1017.2
20260901161004 83 304 1.7 6.1 0.00 0.00 0.00 85 1017.0
20260901160004 82 194 2.6 5.2 0.00 0.00 0.00 87 1017.2
20260901155003 81 295 1.7 6.1 0.00 0.00 0.00 88 1017.3
20260901153004 80 296 1.7 4.3 0.00 0.00 0.00 90 1017.1
20260901151003 80 254 1.7 5.2 0.00 0.00 0.00 90 1017.0
20260901150003 79 276 0.9 4.3 0.00 0.00 0.00 92 1016.9
20260901145003 79 240 1.7 4.3 0.00 0.00 0.00 92 1016.9
20260901144003 78 300 2.6 5.2 0.00 0.00 0.00 94 1017.1
20260901143003 78 233 0.9 4.3 0.00 0.00 0.00 95 1017.0
20260901142003 77 205 1.7 2.6 0.00 0.00 0.00 96 1016.8
20260901141003 76 170 0.9 1.7 0.00 0.00 0.00 97 1017.0
20260901140003 76 336 1.7 2.6 0.00 0.00 0.00 98 1016.8
20260901135003 75 32 0.9 2.6 0.00 0.00 0.00 99 1016.8
20260901134003 75 279 0.9 4.3 0.00 0.00 0.00 99 1016.7
20260901132003 74 157 0.9 1.7 0.00 0.00 0.00 99 1016.8
20260901131003 74 134 0.9 1.7 0.00 0.00 0.00 99 1017.0
20260901130003 74 253 0.9 4.3 0.00 0.00 0.00 99 1016.8
20260901125003 74 291 0.9 5.2 0.00 0.00 0.00 99 1017.1
20260901124003 74 285 1.7 4.3 0.00 0.00 0.00 99 1017.0
20260901123004 74 3 1.7 2.6 0.00 0.00 0.00 99 1017.0
20260901122003 73 217 0.9 4.3 0.00 0.00 0.00 99 1016.9
20260901120003 73 177 1.7 2.6 0.00 0.00 0.00 99 1016.7
20260901115004 73 124 1.7 2.6 0.00 0.00 0.00 99 1016.5
20260901114003 73 264 1.7 5.2 0.00 0.00 0.00 99 1016.2
20260901113003 73 29 3.5 5.2 0.00 0.00 0.00 99 1016.2
20260901112003 73 311 1.7 4.3 0.00 0.00 0.00 99 1015.9
20260901111003 73 346 0.9 2.6 0.00 0.00 0.00 99 1016.0
20260901110003 73 160 0.9 2.6 0.00 0.00 0.00 99 1015.6
20260901105003 73 258 0.9 2.6 0.00 0.00 0.00 99 1015.6
20260901104003 73 186 0.9 2.6 0.00 0.00 0.00 99 1015.6
20260901103003 73 228 0.9 1.7 0.00 0.00 0.00 99 1015.6
20260901101003 73 120 0.9 1.7 0.00 0.00 0.00 99 1015.6
20260901100003 73 108 0.9 1.7 0.00 0.00 0.00 99 1015.6
20260901095003 73 98 0.9 2.6 0.00 0.03 0.00 99 1015.6
20260901094004 73 138 0.9 1.7 0.00 0.04 0.00 99 1015.7
20260901093004 73 195 0.0 0.9 0.00 0.04 0.00 99 1015.8
20260901092003 74 143 0.9 1.7 0.00 0.05 0.00 99 1015.7
20260901091003 74 179 0.9 1.7 0.00 0.09 0.00 99 1015.6
20260901090003 74 130 0.9 1.7 0.00 0.09 0.00 99 1015.4
20260901085003 74 129 0.9 1.7 0.00 0.09 0.00 99 1015.4
20260901084004 74 193 1.7 4.3 0.00 0.09 0.00 99 1015.4
20260901083004 74 180 1.7 2.6 0.00 0.09 0.00 98 1015.3
20260901081004 74 196 0.9 2.6 0.00 0.09 0.00 98 1015.3
20260901075003 74 191 1.7 2.6 0.00 0.09 0.00 98 1015.3
20260901074003 74 197 0.9 1.7 0.00 0.09 0.00 98 1015.3
20260901072003 75 184 0.9 1.7 0.00 0.09 0.00 97 1015.3
20260901070003 75 128 0.0 2.6 0.00 0.09 0.00 97 1015.1
20260901065003 75 131 0.9 1.7 0.00 0.09 0.00 97 1015.1
20260901064004 75 124 0.0 2.6 0.00 0.09 0.00 96 1015.1
20260901063004 76 167 1.7 2.6 0.00 0.09 0.00 96 1015.0
20260901062003 76 109 0.9 1.7 0.00 0.09 0.00 96 1015.3
20260901061003 76 125 0.0 2.6 0.00 0.10 0.00 95 1015.5
20260901060003 76 176 1.7 2.6 0.00 0.11 0.00 95 1015.3
20260901054004 76 157 0.9 2.6 0.00 0.11 0.00 95 1015.3
20260901053003 77 180 0.0 2.6 0.00 0.11 0.00 94 1015.3
20260901052004 76 153 0.9 4.3 0.00 0.11 0.00 94 1015.1
20260901051006 77 165 0.9 2.6 0.00 0.11 0.00 94 1015.0
20260901050004 77 193 0.0 2.6 0.00 0.11 0.00 93 1015.0
20260901045004 77 164 0.9 4.3 0.00 0.11 0.11 93 1015.3
20260901044004 78 210 1.7 5.2 0.00 0.11 0.11 93 1015.3
20260901043003 78 209 1.7 5.2 0.00 0.11 0.11 92 1015.3
20260901042003 78 200 0.9 4.3 0.00 0.11 0.11 92 1015.3
20260901041003 78 221 1.7 2.6 0.00 0.11 0.11 92 1015.3
20260901040003 79 216 1.7 4.3 0.00 0.11 0.11 92 1015.4
20260901035003 79 188 1.7 5.2 0.00 0.11 0.11 91 1015.3